Terminal Aerodrome Forecast
Issued by NWS Pocatello, ID

Home | Current Version | Previous Version | Text Only | Print | Product List | Glossary On
Versions: 1 2 3 4 5 6 7 8 9 10 11 12 13 14 15 16
000
FTUS45 KPIH 011100
TAFBYI
TAF
KBYI 011130Z 0112/0212 25018G26KT P6SM FEW070 SCT200
     FM020200 23012KT P6SM SCT200
     FM020800 VRB05KT P6SM SCT200=

USA.gov is the U.S. government's official web portal to all federal, state and local government web resources and services.